Location: Allos
(44.2333°N, 6.6333°E)
Time: 02:43:07
(UTC+00:00)

X-37B - Pass Details

Date: 14 March 2021
Orbit: 380 x 394 km, 45.0° (Epoch: 07 April)

Event Time Altitude Azimuth Distance (km) Brightness Sun altitude
Rises 19:32:11 0° 261° (W) 2,270 5.5 -20.9°
Reaches altitude 10° 19:34:15 10° 262° (W) 1,418 4.3 -21.2°
Enters shadow 19:36:47 53° 268° (W) 486 1.3 -21.7°
